User: anonymous   Login
Location: ActonStarParty
(42.4766°N, 71.4538°W)
Time: 04:04:10
(UTC-05:00)
Language:

ITAMSAT 1 - Orbit

View from above orbital plane
View from above orbital plane
View from above satellite
View from above satellite

Ground track
Ground track

The orbit data is extracted from the following two-line orbital elements,

1 22826U 93061D   17055.87747822  .00000014  00000-0  22787-4 0  9997
2 22826  98.7919  20.2628 0007946 293.4911  66.5436 14.30314512221526
Epoch (UTC): 24 February 2017 21:03:34
Eccentricity: 0.0007946
inclination: 98.7919°
perigee height: 785 km
apogee height: 796 km
right ascension of ascending node: 20.2628°
argument of perigee: 293.4911°
revolutions per day: 14.30314512
mean anomaly at epoch: 66.5436°
orbit number at epoch: 22152

The dashed part of the orbit path shows where the satellite is in the earth's shadow,  

DLR